Location: Bogis-Bossey
(46.3500°N, 6.1667°E)
Time: 19:12:22
(UTC+00:00)

COSMOS 2406 - Pass Details

Date: 17 August 2022
Orbit: 845 x 861 km, 71.0° (Epoch: 01 October)

Event Time Altitude Azimuth Distance (km) Brightness Sun altitude
Rises 21:12:15 0° 336° (NNW) 3,417 7.7 -21.9°
Reaches altitude 10° 21:14:48 10° 342° (NNW) 2,477 6.6 -22.2°
Maximum altitude 21:20:19 50° 57° (ENE) 1,069 3.6 -22.8°
Enters shadow 21:21:39 42° 98° (E) 1,198 3.6 -22.9°
